カタログに戻る

ONEWEB-0639

運用中通信PO
NORAD 55803·PAYLOAD·🇬🇧 United Kingdom

打ち上げ Mar 9, 2023 から Cape Canaveral Space Force Station

Loading…

次のパス (今後24時間)

TLE

最新Source: CelesTrak SupGP

元期: Sep 14, 2026, 07:00 UTC

1 55803C 23029H   26257.29218009 -.00003345  00000+0 -83660-2 0  2578
2 55803  87.9103 287.2240 0002301  63.4441  50.1386 13.19727378    16

AllMySatでONEWEB-0639をリアルタイム追跡

Download on the App Store